[[{"header":{"parameterUnit":"m.s-1","parameterCategory":1,"la1":30.2991,"la2":30.254,"lo1":-89.0895,"lo2":-89.0444,"dx":0.0017,"dy":0.0017,"nx":28,"ny":28,"refTime":"2022-12-12T03:00:00:Z","depth":0,"parameterNumber":2,"parameterNumberName":"U-component_of_WINDS"},"data":[0,0,0,0,0,0,0,0,0,0,0,0,0,0,0,0,0,0,0,0,0,0,0,0,0,0,0,0,0,0,0,0,0,0,0,0,0,0,0,0,0,0,0,0,0,0,0,0,0,0,0,0,0,0,0,0,0,0,-0.0281,-0.0281,0,-0.0221,-0.0221,-0.022,-0.0197,-0.0197,-0.0197,-0.0197,-0.0135,-0.0133,-0.0131,0,0,0,0,0,0,0,0,0,0,0,0,0,-0.0377,-0.0376,-0.0281,-0.0281,-0.028,-0.0222,-0.0221,-0.022,-0.0197,-0.0197,-0.0197,-0.0197,-0.0136,-0.0133,-0.0131,0,0,0,0,0,0,0,0,0,0,0,0,0,-0.0328,-0.0375,-0.0282,-0.0261,-0.0259,-0.0222,-0.0221,-0.022,-0.0197,-0.0197,-0.0197,-0.0197,-0.0136,-0.0134,-0.0131,-0.0109,0,0,-0.0123,-0.0122,0,0,0,0,0,0,0,0,-0.0331,-0.0325,-0.0265,-0.0263,-0.026,-0.0217,-0.0232,-0.0183,-0.0197,-0.022,-0.0197,-0.0198,-0.0162,-0.0157,-0.0145,-0.0106,-0.0104,-0.0122,-0.0121,-0.012,-0.0119,0,0,0,0,0,0,0,-0.0334,-0.0327,-0.0258,-0.0264,-0.0261,-0.0256,-0.0249,-0.0222,-0.019,-0.0218,-0.0216,-0.021,-0.0161,-0.0148,-0.0144,-0.0103,-0.0123,-0.012,-0.0118,-0.0117,-0.0046,-0.0046,0,0,0,0,0,0,-0.0341,-0.033,-0.0259,-0.0256,-0.0297,-0.0254,-0.0246,-0.023,-0.0191,-0.0185,-0.021,-0.0209,-0.0153,-0.0147,-0.0141,-0.0115,-0.012,-0.0117,-0.0116,-0.0046,-0.0046,-0.0046,0,0,0,0,0,0,-0.0343,-0.0335,-0.0262,-0.0293,-0.0283,-0.0252,-0.0234,-0.0229,-0.0216,-0.0184,-0.0178,-0.0202,-0.0153,-0.0145,-0.0118,-0.0112,-0.0116,-0.0113,-0.0046,-0.0046,-0.0046,-0.0061,0,0,0,0,0,0,-0.0346,-0.0336,-0.0327,-0.0292,-0.0281,-0.0239,-0.0234,-0.0228,-0.0212,-0.021,-0.0176,-0.017,-0.0152,-0.0122,-0.0115,-0.0109,-0.0111,-0.0047,-0.0046,-0.0046,-0.0061,-0.0061,-0.0061,0,0,0,0,0,-0.035,-0.0332,-0.0326,-0.0318,-0.0269,-0.0239,-0.0232,-0.0212,-0.0211,-0.0202,-0.0182,-0.0171,-0.0114,-0.012,-0.0112,-0.0104,-0.0047,-0.0046,-0.0046,-0.0061,-0.0061,-0.0061,0,0,0,0,0,0,-0.0366,-0.0327,-0.032,-0.0291,-0.0269,-0.0235,-0.0222,-0.0213,-0.0189,-0.0189,-0.0164,-0.0157,-0.0132,-0.0115,-0.0122,-0.0083,-0.008,-0.0078,-0.0094,-0.0094,-0.0095,-0.0099,-0.0109,0,0,0,0,0,-0.0366,-0.0345,-0.0312,-0.029,-0.0279,-0.0253,-0.0239,-0.0226,-0.0201,-0.0191,-0.0169,-0.0145,-0.0122,-0.0107,-0.0084,-0.0059,-0.0052,-0.005,-0.005,-0.0051,-0.0049,-0.0037,-0.0036,-0.0044,-0.0044,-0.0044,0,0,-0.0366,-0.0343,-0.033,-0.0293,-0.0274,-0.0253,-0.0245,-0.0222,-0.0207,-0.0187,-0.0161,-0.0144,-0.0116,-0.0091,-0.0078,-0.0076,-0.0046,-0.005,-0.005,-0.0048,-0.0036,-0.0035,-0.0035,-0.0043,-0.0043,-0.0043,0,0,-0.0356,-0.0335,-0.0316,-0.0297,-0.0269,-0.0252,-0.0248,-0.0216,-0.0205,-0.0178,-0.0164,-0.0145,-0.0106,-0.0087,-0.0073,-0.006,-0.0049,-0.0053,-0.0054,-0.0043,-0.0042,-0.0041,-0.0038,-0.0037,-0.0051,-0.0051,-0.0051,0,-0.0359,-0.0327,-0.0307,-0.0286,-0.0271,-0.0254,-0.0235,-0.0218,-0.0183,-0.0173,-0.0172,-0.0124,-0.0104,-0.0075,-0.0072,-0.006,-0.0055,-0.0056,-0.0044,-0.0043,-0.0042,-0.0039,-0.0037,-0.0052,-0.0052,-0.0052,-0.0052,0,-0.0333,-0.0311,-0.0299,-0.0268,-0.0251,-0.0231,-0.0209,-0.0195,-0.0184,-0.0168,-0.0143,-0.0119,-0.0092,-0.0084,-0.0072,-0.0054,-0.0054,-0.0048,-0.0045,-0.0042,-0.0039,-0.0037,-0.0053,-0.0053,-0.0052,-0.0052,0,0,-0.0329,-0.0289,-0.0285,-0.0272,-0.0241,-0.0224,-0.0204,-0.0179,-0.0168,-0.0145,-0.0129,-0.0098,-0.0093,-0.0077,-0.0064,-0.0054,-0.0047,-0.0049,-0.0049,-0.0051,-0.0028,-0.0033,-0.0031,-0.0041,-0.004,-0.004,-0.0031,0,-0.0315,-0.0279,-0.0262,-0.0234,-0.0215,-0.02,-0.0183,-0.0163,-0.0149,-0.0131,-0.0114,-0.0093,-0.0088,-0.0079,-0.0068,-0.005,-0.0042,-0.0051,-0.0026,-0.0025,-0.0034,-0.0029,-0.0033,-0.0025,-0.0029,-0.0029,-0.0029,0,-0.0293,-0.0272,-0.0243,-0.0217,-0.0208,-0.0193,-0.017,-0.0153,-0.0131,-0.0121,-0.0105,-0.0092,-0.0073,-0.0072,-0.0045,-0.0052,-0.0041,-0.0031,-0.003,-0.0027,-0.0027,-0.0026,-0.0022,-0.0021,-0.0026,-0.0026,-0.0026,0,-0.0294,-0.0259,-0.0237,-0.0226,-0.0195,-0.0186,-0.0172,-0.0151,-0.0137,-0.0117,-0.0109,-0.0087,-0.0075,-0.0058,-0.0041,-0.0042,-0.0017,-0.0014,-0.0009,-0.001,-0.0004,-0.0004,0.0002,0.0003,0.0003,0.0003,0.0003,0,-0.0281,-0.0263,-0.0238,-0.0225,-0.0206,-0.0187,-0.0169,-0.0155,-0.0136,-0.0121,-0.0107,-0.0093,-0.0071,-0.0054,-0.0041,-0.0022,-0.0016,-0.0009,-0.0005,-0.001,-0.0011,-0.0002,-0.0002,0.0004,0.0004,0.0004,0.0003,0,-0.0278,-0.026,-0.0236,-0.021,-0.0203,-0.0191,-0.0168,-0.0156,-0.0142,-0.0122,-0.0117,-0.0094,-0.0075,-0.0056,-0.0029,-0.0021,-0.0002,0.0003,-0.001,-0.0008,-0.0004,-0.0005,0.0008,0.001,0.001,0.001,0.001,0,-0.0271,-0.0257,-0.0231,-0.022,-0.0207,-0.0189,-0.0176,-0.0159,-0.0146,-0.0122,-0.0113,-0.0092,-0.0074,-0.0044,-0.0026,-0.0006,-0.0001,0.0002,0.0002,-0.0004,-0.0002,-0.0003,-0.0003,0.0002,0.0002,0.0002,0.0002,0,-0.0259,-0.0252,-0.0234,-0.0214,-0.02,-0.0183,-0.0166,-0.0157,-0.0137,-0.0124,-0.0104,-0.0091,-0.0065,-0.0045,-0.0024,-0.0011,-0.0002,0.0001,0.0003,-0.0002,-0.001,-0.0006,-0.0011,0.0001,0.0001,0.0001,0.0001,0.0001,-0.0255,-0.0243,-0.0224,-0.0205,-0.0191,-0.0176,-0.0163,-0.0149,-0.0132,-0.011,-0.0101,-0.0081,-0.0062,-0.0033,-0.0021,-0.0006,-0.0004,-0.0,0.0001,0.0001,-0.0001,-0.0012,-0.0002,-0.0002,-0.0002,-0.0002,-0.0002,0,-0.0244,-0.0231,-0.0214,-0.0192,-0.0178,-0.0172,-0.0153,-0.0142,-0.0125,-0.0108,-0.0092,-0.0071,-0.0053,-0.0034,-0.0015,-0.0007,-0.0003,-0.0003,-0.0003,-0.0001,-0.0003,-0.0007,-0.0007,-0.0007,-0.0007,-0.0007,-0.0007,-0.0007,-0.0236,-0.0217,-0.0208,-0.0183,-0.0171,-0.0152,-0.0142,-0.0129,-0.0116,-0.0093,-0.0078,-0.0067,-0.005,-0.003,-0.0014,-0.0009,-0.0003,-0.0005,0.0001,-0.0001,-0.0,-0.0,-0.0004,-0.0003,-0.0003,0.0002,0.0002,0.0002]},{"header":{"parameterUnit":"m.s-1","parameterCategory":1,"la1":30.2991,"la2":30.254,"lo1":-89.0895,"lo2":-89.0444,"dx":0.0017,"dy":0.0017,"nx":28,"ny":28,"refTime":"2022-12-12T03:00:00:Z","depth":0,"parameterNumber":3,"parameterNumberName":"V-component_of_WINDS"},"data":[0,0,0,0,0,0,0,0,0,0,0,0,0,0,0,0,0,0,0,0,0,0,0,0,0,0,0,0,0,0,0,0,0,0,0,0,0,0,0,0,0,0,0,0,0,0,0,0,0,0,0,0,0,0,0,0,0,0,1.8874,1.8874,0,1.8874,1.8874,1.8874,1.8897,1.8898,1.8898,1.8899,1.8895,1.8894,1.8894,0,0,0,0,0,0,0,0,0,0,0,0,0,1.8888,1.8888,1.8874,1.8874,1.8874,1.8874,1.8874,1.8874,1.8897,1.8898,1.8898,1.8899,1.8895,1.8894,1.8894,0,0,0,0,0,0,0,0,0,0,0,0,0,1.8884,1.8888,1.8874,1.8886,1.8887,1.8874,1.8874,1.8874,1.8897,1.8898,1.8899,1.8899,1.8895,1.8895,1.8894,1.8869,0,0,1.8891,1.889,0,0,0,0,0,0,0,0,1.8885,1.8884,1.8884,1.8885,1.8886,1.8887,1.8878,1.8872,1.8896,1.8893,1.8899,1.89,1.8891,1.8891,1.8889,1.8869,1.8869,1.889,1.889,1.8889,1.8889,0,0,0,0,0,0,0,1.8885,1.8884,1.8874,1.8884,1.8885,1.8889,1.8889,1.8877,1.8887,1.8893,1.8895,1.8895,1.8892,1.8889,1.8889,1.8869,1.889,1.889,1.8889,1.8889,1.8825,1.8824,0,0,0,0,0,0,1.8884,1.8884,1.8874,1.8874,1.8888,1.8888,1.8888,1.8885,1.8887,1.8888,1.8894,1.8896,1.8891,1.889,1.8889,1.8857,1.8889,1.8888,1.8888,1.8826,1.8825,1.8824,0,0,0,0,0,0,1.8884,1.8883,1.8874,1.8879,1.8879,1.8887,1.8883,1.8885,1.8883,1.8888,1.8889,1.889,1.8891,1.889,1.8873,1.8858,1.8888,1.8887,1.8828,1.8826,1.8824,1.8797,0,0,0,0,0,0,1.8885,1.8883,1.8875,1.8879,1.8878,1.886,1.8882,1.8884,1.8881,1.8884,1.8884,1.8885,1.8892,1.8875,1.8872,1.8857,1.8886,1.8829,1.8827,1.8825,1.8799,1.8794,1.879,0,0,0,0,0,1.8885,1.8867,1.8875,1.8873,1.8869,1.886,1.8859,1.8868,1.888,1.8871,1.8874,1.8885,1.886,1.8873,1.887,1.8854,1.883,1.8827,1.8825,1.8801,1.8795,1.879,0,0,0,0,0,0,1.8861,1.8868,1.8876,1.886,1.8859,1.8863,1.8853,1.8862,1.8857,1.8859,1.887,1.887,1.885,1.8851,1.8865,1.8829,1.8847,1.8844,1.8829,1.8824,1.882,1.8819,1.8886,0,0,0,0,0,1.8854,1.8847,1.8853,1.8838,1.8837,1.8845,1.8841,1.8848,1.8847,1.8846,1.8848,1.8845,1.8836,1.8831,1.8823,1.88,1.8798,1.8787,1.8783,1.8779,1.8776,1.876,1.8754,1.8816,1.8816,1.8816,0,0,1.8838,1.8842,1.8836,1.8833,1.8833,1.8823,1.8844,1.8834,1.8826,1.8845,1.8828,1.8829,1.8827,1.8806,1.8796,1.8805,1.8758,1.8776,1.8773,1.8772,1.8756,1.8751,1.8745,1.8814,1.8814,1.8815,0,0,1.8805,1.8808,1.8794,1.8794,1.8794,1.8799,1.8795,1.8798,1.8799,1.8784,1.8796,1.8786,1.8772,1.8769,1.8765,1.8728,1.8737,1.8725,1.8702,1.8686,1.8681,1.8677,1.8661,1.8655,1.8722,1.8722,1.8722,0,1.8786,1.8774,1.8786,1.8774,1.8771,1.8787,1.8772,1.877,1.8767,1.8763,1.8774,1.8754,1.8754,1.873,1.8721,1.8719,1.8713,1.8725,1.8681,1.8677,1.8673,1.8658,1.8652,1.8721,1.8721,1.8721,1.8721,0,1.8748,1.8739,1.8728,1.8725,1.872,1.8707,1.8715,1.8708,1.8715,1.8718,1.87,1.87,1.8691,1.8687,1.8694,1.8663,1.8668,1.868,1.8698,1.8665,1.8651,1.8645,1.8718,1.8719,1.8719,1.872,0,0,1.87,1.8703,1.8698,1.8696,1.8696,1.8688,1.8674,1.8667,1.8659,1.8656,1.8643,1.8629,1.8639,1.8635,1.8641,1.8628,1.8594,1.8641,1.8641,1.8629,1.8557,1.8546,1.8539,1.8601,1.86,1.8599,1.8556,0,1.8666,1.8643,1.8653,1.8628,1.8618,1.8633,1.862,1.8617,1.862,1.861,1.8611,1.86,1.8616,1.8613,1.8601,1.8601,1.8579,1.8605,1.8585,1.8584,1.8583,1.8532,1.8522,1.8481,1.855,1.855,1.8549,0,1.8623,1.8618,1.8593,1.8593,1.8589,1.8577,1.8569,1.8561,1.8557,1.8559,1.8553,1.8562,1.8545,1.8564,1.8539,1.8556,1.8548,1.8547,1.8546,1.8542,1.8563,1.8525,1.8469,1.8461,1.8541,1.8541,1.8542,0,1.8587,1.8574,1.8557,1.8554,1.8554,1.8545,1.8545,1.8542,1.8536,1.8528,1.8523,1.8514,1.8508,1.8499,1.8503,1.8517,1.8476,1.8496,1.8475,1.8474,1.8464,1.8464,1.8403,1.8463,1.8463,1.8463,1.8463,0,1.8546,1.8529,1.854,1.8529,1.8509,1.8519,1.8499,1.85,1.8497,1.8484,1.8496,1.8483,1.8491,1.8478,1.8482,1.8458,1.8456,1.8455,1.8456,1.8453,1.8452,1.8446,1.8448,1.8462,1.8462,1.8462,1.8463,0,1.8502,1.8509,1.849,1.8491,1.8491,1.8476,1.8476,1.8464,1.8467,1.845,1.8447,1.845,1.8435,1.8439,1.8423,1.8425,1.8395,1.84,1.8396,1.8396,1.8373,1.8374,1.8304,1.8294,1.8363,1.8363,1.8362,0,1.8475,1.8462,1.8462,1.8455,1.8453,1.8442,1.8435,1.8444,1.8436,1.8429,1.8417,1.8404,1.8393,1.8368,1.8368,1.8354,1.8358,1.8334,1.8356,1.8352,1.8353,1.8353,1.835,1.8329,1.8328,1.8327,1.8327,0,1.8424,1.8428,1.8419,1.841,1.8403,1.8396,1.839,1.8383,1.8391,1.8381,1.8367,1.8358,1.8341,1.8326,1.8313,1.831,1.8318,1.832,1.8314,1.8309,1.8306,1.8304,1.8381,1.8321,1.8322,1.8322,1.8323,1.8323,1.8386,1.8374,1.8371,1.836,1.8357,1.835,1.8339,1.834,1.8328,1.8316,1.8321,1.8303,1.8296,1.828,1.8275,1.8259,1.8268,1.826,1.8257,1.8254,1.8249,1.8311,1.8257,1.8257,1.8258,1.8258,1.8258,0,1.8334,1.8332,1.8322,1.8314,1.8304,1.8315,1.8308,1.8298,1.8283,1.8277,1.8266,1.8247,1.8232,1.823,1.8215,1.8202,1.8205,1.8198,1.8197,1.8195,1.8244,1.825,1.8195,1.8195,1.8195,1.8195,1.8195,1.8195,1.8305,1.8285,1.8288,1.8264,1.8263,1.8247,1.8241,1.8234,1.8229,1.8208,1.8196,1.8195,1.8189,1.8173,1.8159,1.8158,1.815,1.8141,1.8141,1.8186,1.8192,1.8198,1.8204,1.814,1.814,1.8093,1.8092,1.8092]}]]